[[{"header":{"parameterUnit":"m.s-1","parameterCategory":1,"la1":30.2991,"la2":30.254,"lo1":-89.0895,"lo2":-89.0444,"dy":0.0017,"dx":0.0017,"nx":28,"ny":28,"refTime":"2025-09-08T09:00:00:Z","depth":0,"parameterNumber":2,"parameterNumberName":"U-component_of_WINDS"},"data":[0,0,0,0,0,0,0,0,0,0,0,0,0,0,0,0,0,0,0,0,0,0,0,0,0,0,0,0,0,0,0,0,0,0,0,0,0,0,0,0,0,0,0,0,0,0,0,0,0,0,0,0,0,0,0,0,0,0,-3.0972,-3.0972,0,-3.1003,-3.1004,-3.1004,-3.0895,-3.0892,-3.0889,-3.0886,-3.092,-3.0924,-3.0928,0,0,0,0,0,0,0,0,0,0,0,0,0,-3.0818,-3.0822,-3.0972,-3.0972,-3.0973,-3.1003,-3.1004,-3.1004,-3.0896,-3.0892,-3.0888,-3.0884,-3.0919,-3.0924,-3.0929,0,0,0,0,0,0,0,0,0,0,0,0,0,-3.0871,-3.0823,-3.0972,-3.0922,-3.0918,-3.1003,-3.1004,-3.1004,-3.0897,-3.0892,-3.0887,-3.0882,-3.0917,-3.0923,-3.0929,-3.1065,0,0,-3.0947,-3.095,0,0,0,0,0,0,0,0,-3.0868,-3.0877,-3.0929,-3.0926,-3.0921,-3.094,-3.0962,-3.1025,-3.0898,-3.0905,-3.0885,-3.088,-3.0931,-3.0936,-3.0952,-3.1066,-3.1068,-3.0948,-3.0952,-3.0954,-3.0956,0,0,0,0,0,0,0,-3.0865,-3.0875,-3.0984,-3.093,-3.0925,-3.0899,-3.0901,-3.0974,-3.0945,-3.0904,-3.0896,-3.0901,-3.0928,-3.0947,-3.0953,-3.1068,-3.0948,-3.0953,-3.0957,-3.0959,-3.1294,-3.1299,0,0,0,0,0,0,-3.0867,-3.0873,-3.0983,-3.0985,-3.0882,-3.0905,-3.0908,-3.0939,-3.0944,-3.094,-3.0905,-3.0896,-3.0939,-3.0946,-3.0953,-3.1113,-3.0954,-3.096,-3.0963,-3.1289,-3.1295,-3.1301,0,0,0,0,0,0,-3.0864,-3.0878,-3.0982,-3.0927,-3.0938,-3.0913,-3.095,-3.0942,-3.0961,-3.0945,-3.094,-3.093,-3.0936,-3.0945,-3.1038,-3.1112,-3.0962,-3.0968,-3.1283,-3.1291,-3.1298,-3.1432,0,0,0,0,0,0,-3.0861,-3.0878,-3.0929,-3.0929,-3.0941,-3.1066,-3.0954,-3.0947,-3.0972,-3.096,-3.0967,-3.0963,-3.0932,-3.1029,-3.1044,-3.1118,-3.0973,-3.1276,-3.1286,-3.1296,-3.1421,-3.1444,-3.1463,0,0,0,0,0,-3.0855,-3.0966,-3.0932,-3.0946,-3.1005,-3.107,-3.1078,-3.1039,-3.0978,-3.1029,-3.1019,-3.0963,-3.1101,-3.104,-3.1055,-3.1132,-3.1271,-3.1283,-3.1295,-3.1412,-3.144,-3.1463,0,0,0,0,0,0,-3.0977,-3.0965,-3.0928,-3.1041,-3.1058,-3.1052,-3.1116,-3.107,-3.1105,-3.1092,-3.1043,-3.1046,-3.1148,-3.1148,-3.108,-3.1263,-3.1176,-3.1191,-3.1259,-3.1286,-3.1306,-3.1305,-3.0978,0,0,0,0,0,-3.1017,-3.1071,-3.1057,-3.1159,-3.1169,-3.1141,-3.1169,-3.1137,-3.1153,-3.1159,-3.1155,-3.1173,-3.122,-3.1252,-3.1295,-3.142,-3.142,-3.148,-3.1501,-3.1519,-3.1534,-3.16,-3.1627,-3.134,-3.134,-3.134,0,0,-3.1101,-3.1101,-3.1138,-3.1184,-3.1193,-3.125,-3.1148,-3.1213,-3.1256,-3.1169,-3.1257,-3.1254,-3.127,-3.138,-3.1428,-3.1384,-3.1612,-3.1534,-3.1548,-3.1553,-3.1615,-3.1642,-3.1667,-3.1349,-3.1347,-3.1346,0,0,-3.1282,-3.1287,-3.1373,-3.1383,-3.1398,-3.1378,-3.1399,-3.14,-3.1395,-3.1481,-3.1417,-3.1467,-3.1549,-3.1563,-3.1581,-3.1766,-3.1717,-3.1781,-3.1893,-3.1958,-3.1981,-3.2001,-3.2068,-3.2093,-3.1796,-3.1796,-3.1796,0,-3.1385,-3.1468,-3.1423,-3.1492,-3.1515,-3.1437,-3.1524,-3.1536,-3.1564,-3.1582,-3.1531,-3.1632,-3.1638,-3.175,-3.1795,-3.1811,-3.1834,-3.1782,-3.1981,-3.2,-3.2018,-3.2082,-3.2107,-3.1804,-3.1803,-3.1802,-3.1801,0,-3.1594,-3.1653,-3.172,-3.1748,-3.1778,-3.1856,-3.1822,-3.1857,-3.1823,-3.1808,-3.1897,-3.19,-3.1942,-3.1966,-3.1933,-3.2074,-3.2046,-3.1989,-3.1901,-3.2054,-3.2113,-3.2137,-3.1815,-3.1812,-3.181,-3.1808,0,0,-3.1857,-3.1857,-3.1882,-3.1894,-3.1903,-3.1948,-3.2022,-3.2062,-3.2094,-3.2114,-3.2176,-3.2246,-3.2193,-3.2214,-3.2182,-3.2239,-3.2387,-3.2175,-3.2174,-3.2216,-3.2542,-3.2587,-3.2616,-3.2352,-3.2357,-3.236,-3.2541,0,-3.2036,-3.2163,-3.2123,-3.2251,-3.2305,-3.2231,-3.2295,-3.2308,-3.2296,-3.234,-3.2326,-3.2378,-3.2304,-3.2316,-3.2369,-3.2358,-3.2452,-3.2344,-3.241,-3.2413,-3.2411,-3.2646,-3.2693,-3.2864,-3.2564,-3.2568,-3.2571,0,-3.2264,-3.2293,-3.2427,-3.2426,-3.2447,-3.2506,-3.2539,-3.2581,-3.2594,-3.2581,-3.2604,-3.2559,-3.2632,-3.2541,-3.2641,-3.2568,-3.2592,-3.2591,-3.2596,-3.2603,-3.2503,-3.2661,-3.2918,-3.2944,-3.2606,-3.2603,-3.2601,0,-3.2444,-3.2517,-3.2606,-3.2618,-3.2619,-3.2662,-3.2664,-3.2672,-3.2698,-3.2727,-3.2743,-3.278,-3.2802,-3.2831,-3.2798,-3.2735,-3.2903,-3.2809,-3.2896,-3.2897,-3.2937,-3.2935,-3.3203,-3.2949,-3.2949,-3.2948,-3.2948,0,-3.2651,-3.2736,-3.2687,-3.2742,-3.2834,-3.2787,-3.288,-3.2874,-3.2881,-3.2934,-3.2872,-3.2923,-3.2874,-3.2921,-3.2895,-3.2982,-3.2992,-3.2984,-3.2977,-3.2991,-3.2993,-3.3008,-3.2997,-3.2955,-3.2953,-3.2952,-3.2951,0,-3.2869,-3.2839,-3.2932,-3.2924,-3.2924,-3.2993,-3.2987,-3.3038,-3.302,-3.3088,-3.3101,-3.3074,-3.3126,-3.3094,-3.3147,-3.3129,-3.3243,-3.3218,-3.324,-3.3234,-3.3322,-3.3315,-3.3612,-3.3649,-3.3369,-3.3372,-3.3374,0,-3.3004,-3.3068,-3.3067,-3.3097,-3.3103,-3.3153,-3.3179,-3.3135,-3.3165,-3.3183,-3.3232,-3.3277,-3.3312,-3.3398,-3.3383,-3.3423,-3.34,-3.3501,-3.3406,-3.3418,-3.3404,-3.3401,-3.3408,-3.3521,-3.3525,-3.3527,-3.3529,0,-3.3248,-3.3229,-3.3269,-3.3304,-3.3337,-3.3362,-3.3382,-3.3411,-3.3366,-3.3402,-3.3454,-3.3481,-3.3533,-3.358,-3.3613,-3.3616,-3.3567,-3.3559,-3.3581,-3.3598,-3.3608,-3.3606,-3.3294,-3.3553,-3.3551,-3.3549,-3.3548,-3.3547,-3.343,-3.3483,-3.349,-3.3536,-3.3546,-3.3566,-3.3614,-3.3601,-3.3643,-3.3683,-3.3653,-3.3714,-3.3724,-3.3763,-3.3772,-3.382,-3.3779,-3.3811,-3.3819,-3.3829,-3.3842,-3.3598,-3.3825,-3.3824,-3.3824,-3.3823,-3.3823,0,-3.3672,-3.3672,-3.3715,-3.3745,-3.3781,-3.3728,-3.3748,-3.3782,-3.3837,-3.3849,-3.3884,-3.3943,-3.3988,-3.3976,-3.4016,-3.4056,-3.4034,-3.4068,-3.4066,-3.4068,-3.3875,-3.3853,-3.4085,-3.4085,-3.4085,-3.4085,-3.4085,-3.4085,-3.3802,-3.3889,-3.3871,-3.3962,-3.3962,-3.4021,-3.4037,-3.4055,-3.4065,-3.4133,-3.417,-3.4161,-3.4164,-3.4203,-3.4242,-3.4237,-3.4255,-3.4298,-3.4286,-3.4107,-3.4081,-3.4056,-3.4035,-3.4302,-3.4302,-3.4474,-3.4476,-3.4477]},{"header":{"parameterUnit":"m.s-1","parameterCategory":1,"la1":30.2991,"la2":30.254,"lo1":-89.0895,"lo2":-89.0444,"dy":0.0017,"dx":0.0017,"nx":28,"ny":28,"refTime":"2025-09-08T09:00:00:Z","depth":0,"parameterNumber":3,"parameterNumberName":"V-component_of_WINDS"},"data":[0,0,0,0,0,0,0,0,0,0,0,0,0,0,0,0,0,0,0,0,0,0,0,0,0,0,0,0,0,0,0,0,0,0,0,0,0,0,0,0,0,0,0,0,0,0,0,0,0,0,0,0,0,0,0,0,0,0,-6.8172,-6.8173,0,-6.8249,-6.825,-6.8251,-6.8143,-6.8139,-6.8136,-6.8132,-6.8206,-6.8211,-6.8217,0,0,0,0,0,0,0,0,0,0,0,0,0,-6.7925,-6.793,-6.8172,-6.8173,-6.8174,-6.8249,-6.825,-6.8251,-6.8144,-6.8139,-6.8135,-6.813,-6.8204,-6.8211,-6.8217,0,0,0,0,0,0,0,0,0,0,0,0,0,-6.802,-6.7932,-6.8172,-6.8129,-6.8126,-6.8249,-6.825,-6.8251,-6.8145,-6.8139,-6.8133,-6.8128,-6.8202,-6.821,-6.8218,-6.8384,0,0,-6.8243,-6.8247,0,0,0,0,0,0,0,0,-6.8015,-6.8029,-6.8135,-6.8133,-6.8129,-6.8181,-6.819,-6.8295,-6.8146,-6.8138,-6.8132,-6.8125,-6.8202,-6.821,-6.8237,-6.8387,-6.839,-6.8244,-6.8249,-6.8253,-6.8255,0,0,0,0,0,0,0,-6.8009,-6.8026,-6.8202,-6.8136,-6.8133,-6.8105,-6.8112,-6.8209,-6.8201,-6.8138,-6.813,-6.8141,-6.8199,-6.8229,-6.8237,-6.8391,-6.8244,-6.8251,-6.8256,-6.826,-6.8679,-6.8685,0,0,0,0,0,0,-6.8008,-6.8021,-6.82,-6.8204,-6.8057,-6.8114,-6.8122,-6.817,-6.8199,-6.8198,-6.8146,-6.8136,-6.8217,-6.8228,-6.824,-6.8434,-6.8253,-6.826,-6.8265,-6.8673,-6.8681,-6.8687,0,0,0,0,0,0,-6.8003,-6.8025,-6.8196,-6.8111,-6.813,-6.8124,-6.8179,-6.8174,-6.8204,-6.8206,-6.8203,-6.8179,-6.8213,-6.8228,-6.8349,-6.8435,-6.8264,-6.8272,-6.8666,-6.8676,-6.8684,-6.8826,0,0,0,0,0,0,-6.7996,-6.8024,-6.8088,-6.8113,-6.8135,-6.8307,-6.8184,-6.818,-6.8219,-6.8207,-6.8235,-6.8234,-6.821,-6.8337,-6.8357,-6.8444,-6.8278,-6.8658,-6.867,-6.8681,-6.8814,-6.8839,-6.8861,0,0,0,0,0,-6.7988,-6.8124,-6.8092,-6.8114,-6.8216,-6.8312,-6.8324,-6.8295,-6.8227,-6.829,-6.8291,-6.8233,-6.8423,-6.835,-6.8372,-6.8462,-6.8652,-6.8667,-6.868,-6.8803,-6.8834,-6.886,0,0,0,0,0,0,-6.8108,-6.8127,-6.8091,-6.824,-6.8276,-6.8293,-6.8373,-6.8329,-6.8383,-6.8369,-6.8329,-6.8336,-6.8465,-6.8475,-6.8394,-6.8623,-6.8526,-6.8545,-6.8612,-6.8641,-6.8665,-6.8659,-6.8285,0,0,0,0,0,-6.8152,-6.8231,-6.8242,-6.8372,-6.8391,-6.838,-6.842,-6.8395,-6.8429,-6.8443,-6.8452,-6.8486,-6.8552,-6.8597,-6.8659,-6.8814,-6.8818,-6.8887,-6.8911,-6.893,-6.8947,-6.9028,-6.9059,-6.8733,-6.8733,-6.8733,0,0,-6.8244,-6.8263,-6.8315,-6.8396,-6.8421,-6.85,-6.8393,-6.8482,-6.854,-6.8455,-6.857,-6.8578,-6.8613,-6.8752,-6.8813,-6.8764,-6.9038,-6.8948,-6.8964,-6.897,-6.9046,-6.9077,-6.9104,-6.8743,-6.8741,-6.8739,0,0,-6.8451,-6.8475,-6.8585,-6.8612,-6.8651,-6.8642,-6.8668,-6.8693,-6.8696,-6.8811,-6.8749,-6.8816,-6.8933,-6.896,-6.8989,-6.9206,-6.9154,-6.9227,-6.935,-6.943,-6.9456,-6.9478,-6.9554,-6.9582,-6.9243,-6.9244,-6.9244,0,-6.8559,-6.8679,-6.8647,-6.8741,-6.8777,-6.8706,-6.8816,-6.8843,-6.89,-6.8926,-6.8871,-6.9015,-6.9033,-6.9177,-6.923,-6.9256,-6.9283,-6.9223,-6.9455,-6.9477,-6.9498,-6.957,-6.9599,-6.9252,-6.9251,-6.925,-6.925,0,-6.8809,-6.8893,-6.8977,-6.9036,-6.9082,-6.9183,-6.9165,-6.9215,-6.9185,-6.9181,-6.9298,-6.9318,-6.9382,-6.9414,-6.9385,-6.9553,-6.9521,-6.9462,-6.9363,-6.9538,-6.9605,-6.9632,-6.9264,-6.9261,-6.9259,-6.9257,0,0,-6.9095,-6.9134,-6.9165,-6.919,-6.9227,-6.9291,-6.9388,-6.9452,-6.9495,-6.9536,-6.9616,-6.9716,-6.966,-6.9693,-6.9667,-6.9737,-6.9906,-6.9668,-6.9668,-6.9711,-7.0091,-7.0135,-7.0168,-6.9873,-6.9878,-6.9882,-7.0088,0,-6.9301,-6.9472,-6.9445,-6.9609,-6.9685,-6.9618,-6.9703,-6.9734,-6.9733,-6.9795,-6.9792,-6.9864,-6.9786,-6.9805,-6.9872,-6.9872,-6.9982,-6.9857,-6.9944,-6.9948,-6.9938,-7.0203,-7.0251,-7.0444,-7.0114,-7.0118,-7.0121,0,-6.9565,-6.9617,-6.979,-6.9814,-6.9845,-6.9922,-6.9978,-7.0039,-7.0072,-7.0066,-7.0103,-7.0063,-7.0158,-7.0059,-7.0188,-7.0103,-7.0137,-7.0143,-7.0149,-7.0156,-7.0045,-7.0216,-7.0505,-7.0534,-7.0163,-7.0159,-7.0156,0,-6.9755,-6.9868,-6.9986,-7.0009,-7.0041,-7.0096,-7.0112,-7.0139,-7.0179,-7.0227,-7.0252,-7.031,-7.0342,-7.0387,-7.0363,-7.0293,-7.0497,-7.0395,-7.0493,-7.0494,-7.0538,-7.0536,-7.0836,-7.0562,-7.0561,-7.0561,-7.056,0,-6.9988,-7.0096,-7.0071,-7.0144,-7.0262,-7.0229,-7.0346,-7.0353,-7.0378,-7.0448,-7.0393,-7.046,-7.0425,-7.0489,-7.0471,-7.058,-7.0595,-7.0591,-7.0585,-7.0596,-7.0597,-7.0617,-7.0603,-7.0568,-7.0567,-7.0565,-7.0564,0,-7.022,-7.0209,-7.0332,-7.0352,-7.036,-7.0446,-7.0462,-7.0528,-7.0523,-7.0613,-7.0632,-7.0623,-7.0695,-7.0676,-7.0754,-7.0742,-7.0879,-7.0856,-7.0869,-7.0863,-7.0962,-7.0953,-7.1286,-7.1327,-7.1027,-7.103,-7.1032,0,-7.037,-7.0451,-7.0481,-7.0525,-7.0545,-7.0617,-7.0658,-7.0628,-7.0672,-7.0716,-7.0776,-7.0844,-7.0897,-7.1015,-7.1014,-7.1073,-7.1051,-7.1163,-7.1059,-7.1067,-7.1051,-7.1047,-7.1054,-7.1184,-7.1187,-7.119,-7.1193,0,-7.0636,-7.0626,-7.0688,-7.0748,-7.0799,-7.0844,-7.0884,-7.0923,-7.0896,-7.0948,-7.1022,-7.1064,-7.1144,-7.1211,-7.1265,-7.1278,-7.1231,-7.1226,-7.1251,-7.1263,-7.1267,-7.1265,-7.0925,-7.1218,-7.1215,-7.1213,-7.1212,-7.1211,-7.083,-7.09,-7.0931,-7.1002,-7.1029,-7.1067,-7.1131,-7.1134,-7.1196,-7.126,-7.1238,-7.1322,-7.1351,-7.1419,-7.1439,-7.1503,-7.146,-7.1498,-7.1507,-7.1516,-7.1529,-7.1257,-7.1513,-7.1512,-7.1512,-7.1511,-7.151,0,-7.1093,-7.111,-7.1175,-7.1234,-7.1289,-7.1241,-7.1283,-7.1331,-7.1407,-7.1439,-7.1492,-7.1576,-7.1641,-7.1646,-7.1706,-7.1756,-7.1736,-7.1773,-7.1769,-7.1773,-7.1564,-7.1536,-7.1789,-7.1789,-7.1789,-7.1789,-7.1788,-7.1788,-7.1236,-7.135,-7.1344,-7.147,-7.1485,-7.157,-7.1597,-7.1632,-7.1657,-7.1754,-7.1809,-7.1812,-7.1832,-7.1893,-7.195,-7.1949,-7.1973,-7.2019,-7.201,-7.1815,-7.1787,-7.1761,-7.1734,-7.2025,-7.2025,-7.2213,-7.2215,-7.2216]}]]